Regional Weather Roundup
Issued by NWS

Home | Current Version | Previous Version | Text Only | Print | Product List | Glossary On
Versions: 1 2 3 4 5 6 7 8 9 10 11 12 13 14 15 16 17 18 19 20 21 22 23 24 25 26 27 28 29 30 31 32 33 34 35 36 37 38 39 40 41 42 43 44 45 46 47 48 49 50
000
ASUS43 KLSX 191607
RWRMO

WEATHER SUMMARY FOR MISSOURI
NATIONAL WEATHER SERVICE SPRINGFIELD MO
1000 AM CST SUN NOV 19 2017

NOTE: "FAIR" INDICATES FEW OR NO CLOUDS BELOW 12,000 FEET WITH NO
       SIGNIFICANT WEATHER AND/OR OBSTRUCTIONS TO VISIBILITY.
       CURRENT SKY AND/OR WEATHER CONDITIONS ARE NOT AVAILABLE FOR
       CHILLICOTHE AND FARMINGTON.

MOZ001>031-035>038-043-044-053-054-191700-
...NORTHERN AND WESTERN MISSOURI...

CITY           SKY/WX    TMP DP  RH WIND       PRES   REMARKS
KANSAS CTY INT SUNNY     37  24  59 S5        30.28S
KANSAS C DTWN  SUNNY     39  23  52 CALM      30.30S
LEE`S SUMMIT   SUNNY     38  22  52 NW5       30.30S
ST JOSEPH      SUNNY     36  24  62 S6        30.28F
CHILLICOTHE      N/A     37  21  52 VRB5      30.28F
KIRKSVILLE     SUNNY     33  19  56 NW8       30.25R WCI  26

$$
MOZ066>068-077>081-088>096-101>105-191700-
...SOUTHWEST MISSOURI...

CITY           SKY/WX    TMP DP  RH WIND       PRES   REMARKS
SPRINGFIELD    SUNNY     39  25  57 N14       30.29R
JOPLIN         SUNNY     42  29  59 N7        30.33S
BRANSON        SUNNY     41  21  45 NW10G16   30.31R

$$
MOZ032>034-039>042-045>050-055>058-069>072-191700-
...CENTRAL MISSOURI...

CITY           SKY/WX    TMP DP  RH WIND       PRES   REMARKS
COLUMBIA       SUNNY     35  19  52 NW16      30.28R WCI  25
JEFFERSON CITY SUNNY     35  19  52 NW10      30.30R WCI  27
ROLLA          SUNNY     34  20  56 NW13      30.26R WCI  25
SEDALIA        SUNNY     37  23  56 N9        30.31R
WHITEMAN AFB   SUNNY     38  18  45 NW6       30.26S
WARRENSBURG    SUNNY     36  21  55 NW5       30.30F
OSAGE BEACH    SUNNY     37  18  46 N8        30.31R

$$
MOZ051-052-059>065-191700-
...EAST CENTRAL MISSOURI...

CITY           SKY/WX    TMP DP  RH WIND       PRES   REMARKS
ST LOUIS INTL  SUNNY     35  19  52 NW13G20   30.23R WCI  26
SPIRIT OF STL  SUNNY     36  19  50 W12       30.24R WCI  28
ST CHARLES     SUNNY     35  18  49 W13       30.23R WCI  26

$$
MOZ072>076-082>087-097>100-106>115-191700-
...SOUTH CENTRAL AND SOUTHEAST MISSOURI...

CITY           SKY/WX    TMP DP  RH WIND       PRES   REMARKS
CAPE GIRARDEAU SUNNY     39  23  52 NW12G22   30.24R
FARMINGTON     SUNNY     35  20  54 NW10      30.24R WCI  27
POPLAR BLUFF   SUNNY     42  21  43 NW14G22   30.25R
WEST PLAINS    SUNNY     42  19  39 N12G21    30.27R

$$



USA.gov is the U.S. government's official web portal to all federal, state and local government web resources and services.